Weather History for KOWD - March, 2014

Change the Weather History Date:

Thursday, March 6, 2014

  Actual Average Record
Temperature  
Mean Temperature 18 °F -  
Max Temperature 27 °F 40 °F 63 °F (2011)
Min Temperature 8 °F 23 °F 7 °F (2007)
Degree Days  
Heating Degree Days 48    
Moisture  
Dew Point -1 °F    
Average Humidity 48    
Maximum Humidity 83    
Minimum Humidity 24    
Precipitation  
Precipitation 0.00 in - - ()
Sea Level Pressure  
Sea Level Pressure 30.57 in    
Wind  
Wind Speed 6 mph (NNE)    
Max Wind Speed 10 mph    
Max Gust Speed -    
Visibility 10 miles    
Events      
Averages and records for this station are not official NWS values.
T = Trace of Precipitation, MM = Missing Value Source: NWS Daily Summary

Daily Weather History Graph

Daily Weather History Graph

Search for Another Location

Airport or City:

Trip Planner

Search our weather history database for the weather conditions in past years. The results will help you decide how hot, cold, wet, or windy it might be!

Date:

Astronomy

Mar. 06, 2014 Rise Set
Actual Time 6:11 AM EST 5:40 PM EST
Civil Twilight 5:43 AM EST 6:08 PM EST
Nautical Twilight 5:11 AM EST 6:41 PM EST
Astronomical Twilight 4:38 AM EST 7:13 PM EST
Moon 9:11 AM EST (3/6) 11:50 PM EST (3/6)
Length of Visible Light 12h 24m
Length of Day
11h 28m
Waxing Crescent, 32% of the Moon is Illuminated
Mar 6
Waxing Crescent
Mar 8
First Quarter
Mar 16
Full
Mar 23
Last Quarter
Mar 30
New

Hourly Weather History & Observations

Time (EST) Temp. Windchill Dew Point Humidity Pressure Visibility Wind Dir Wind Speed Gust Speed Precip Events Conditions
12:08 AM 19.0 °F 8.2 °F 9.0 °F 65% 30.49 in 10.0 mi North 9.2 mph - N/A   Mostly Cloudy
12:53 AM 17.1 °F 5.8 °F 5.0 °F 59% 30.50 in 10.0 mi NNW 9.2 mph - N/A   Mostly Cloudy
1:53 AM 16.0 °F 5.3 °F 3.0 °F 57% 30.51 in 10.0 mi NNW 8.1 mph - N/A   Clear
2:53 AM 15.1 °F 4.2 °F 1.0 °F 54% 30.53 in 10.0 mi North 8.1 mph - N/A   Clear
3:53 AM 12.9 °F 0.7 °F -0.9 °F 54% 30.55 in 10.0 mi North 9.2 mph - N/A   Clear
4:53 AM 12.0 °F 4.1 °F -2.0 °F 53% 30.56 in 10.0 mi NNW 4.6 mph - N/A   Clear
5:53 AM 10.9 °F - -4.0 °F 51% 30.58 in 10.0 mi Calm Calm - N/A   Clear
6:53 AM 10.9 °F 2.9 °F -4.0 °F 51% 30.61 in 10.0 mi NNW 4.6 mph - N/A   Clear
7:53 AM 12.9 °F 0.7 °F -6.0 °F 43% 30.62 in 10.0 mi North 9.2 mph - N/A   Clear
8:53 AM 17.1 °F 5.0 °F -7.1 °F 34% 30.64 in 10.0 mi North 10.4 mph - N/A   Clear
9:53 AM 19.0 °F 12.3 °F -7.1 °F 31% 30.64 in 10.0 mi NNW 4.6 mph - N/A   Clear
10:53 AM 21.0 °F 12.4 °F -9.0 °F 26% 30.63 in 10.0 mi Variable 6.9 mph - N/A   Clear
11:53 AM 24.1 °F 17.0 °F -8.0 °F 24% 30.63 in 10.0 mi Variable 5.8 mph - N/A   Clear
12:53 PM 24.1 °F 17.0 °F -5.1 °F 28% 30.60 in 10.0 mi ENE 5.8 mph - N/A   Clear
1:53 PM 26.1 °F 17.6 °F -2.0 °F 30% 30.58 in 10.0 mi ENE 8.1 mph - N/A   Clear
2:53 PM 27.0 °F - -0.0 °F 31% 30.58 in 10.0 mi Calm Calm - N/A   Clear
3:53 PM 27.0 °F 21.6 °F 1.9 °F 34% 30.57 in 10.0 mi East 4.6 mph - N/A   Clear
4:53 PM 27.0 °F 23.0 °F -0.0 °F 31% 30.56 in 10.0 mi SE 3.5 mph - N/A   Clear
5:53 PM 24.1 °F 18.2 °F -0.9 °F 34% 30.56 in 10.0 mi SE 4.6 mph - N/A   Clear
6:53 PM 19.0 °F - 3.9 °F 52% 30.58 in 10.0 mi Calm Calm - N/A   Clear
7:53 PM 16.0 °F - 3.9 °F 59% 30.57 in 10.0 mi Calm Calm - N/A   Clear
8:53 PM 12.9 °F - 3.9 °F 67% 30.58 in 10.0 mi Calm Calm - N/A   Clear
9:53 PM 9.0 °F - 3.9 °F 80% 30.58 in 10.0 mi Calm Calm - N/A   Clear
10:53 PM 8.1 °F - 3.0 °F 80% 30.55 in 10.0 mi Calm Calm - N/A   Clear
11:53 PM 8.1 °F - 3.9 °F 83% 30.52 in 10.0 mi Calm Calm - N/A   Clear